Lake Oroville Weather Center

Moon Phase Calendar



Lake Oroville Water Level
Online Cameras

 


      

Current Conditions in Berry Creek
11/28/2020 2:20:27 AM

41°F
Feels Like 34
Clear
Humidity
70%
Pressure
30.27"
Wind
5.8 mph (W)
Dew Point
32°F
UV Index
0/10 (Low)
Visibility
6 mi

Hourly Forecast

Date & Time Sat, Nov 28
2:00 AM
Sat, Nov 28
3:00 AM
Sat, Nov 28
4:00 AM
Sat, Nov 28
5:00 AM
Sat, Nov 28
6:00 AM
Sat, Nov 28
7:00 AM
Sat, Nov 28
8:00 AM
Sat, Nov 28
9:00 AM
Sat, Nov 28
10:00 AM
Sat, Nov 28
11:00 AM
Sat, Nov 28
12:00 PM
Sat, Nov 28
1:00 PM
Sat, Nov 28
2:00 PM
Sat, Nov 28
3:00 PM
Sat, Nov 28
4:00 PM
Sat, Nov 28
5:00 PM
Sat, Nov 28
6:00 PM
Sat, Nov 28
7:00 PM
Sat, Nov 28
8:00 PM
Sat, Nov 28
9:00 PM
Sat, Nov 28
10:00 PM
Sat, Nov 28
11:00 PM
Sun, Nov 29
12:00 AM
Sun, Nov 29
1:00 AM
Sun, Nov 29
2:00 AM
Sun, Nov 29
3:00 AM
Sun, Nov 29
4:00 AM
Sun, Nov 29
5:00 AM
Sun, Nov 29
6:00 AM
Sun, Nov 29
7:00 AM
Sun, Nov 29
8:00 AM
Sun, Nov 29
9:00 AM
Sun, Nov 29
10:00 AM
Sun, Nov 29
11:00 AM
Sun, Nov 29
12:00 PM
Sun, Nov 29
1:00 PM
Sun, Nov 29
2:00 PM
Sun, Nov 29
3:00 PM
Sun, Nov 29
4:00 PM
Sun, Nov 29
5:00 PM
Sun, Nov 29
6:00 PM
Sun, Nov 29
7:00 PM
Sun, Nov 29
8:00 PM
Sun, Nov 29
9:00 PM
Sun, Nov 29
10:00 PM
Sun, Nov 29
11:00 PM
Mon, Nov 30
12:00 AM
Mon, Nov 30
1:00 AM
Condition
Clear

Clear

Clear

Clear

Clear

Clear

Clear

Clear

Clear

Clear

Clear

Clear

Clear

Clear

Clear

Clouds

Clouds

Clouds

Clouds

Clouds

Clouds

Clear

Clear

Clouds

Clouds

Clouds

Clouds

Clouds

Clouds

Clouds

Clouds

Clouds

Clouds

Clear

Clouds

Clouds

Clouds

Clouds

Clouds

Clouds

Clouds

Clouds

Clouds

Clouds

Clouds

Clouds

Clouds

Clouds
Temperature 41°F43°F43°F43°F43°F43°F46°F52°F57°F60°F61°F62°F62°F61°F55°F50°F50°F49°F49°F48°F48°F47°F47°F46°F46°F46°F46°F46°F46°F46°F47°F53°F58°F61°F62°F63°F61°F59°F55°F50°F50°F49°F49°F49°F49°F48°F48°F47°F
Feels Like 35°F36°F37°F37°F37°F37°F40°F48°F52°F54°F55°F56°F56°F55°F51°F45°F43°F43°F43°F42°F41°F41°F40°F40°F40°F39°F39°F39°F39°F39°F41°F48°F54°F56°F57°F57°F56°F55°F51°F46°F44°F43°F42°F42°F42°F42°F41°F41°F
Cloudiness 1%1%0%0%0%0%0%0%0%0%0%0%0%0%1%12%21%32%38%31%26%0%2%27%42%49%56%100%100%100%95%76%63%0%26%45%59%67%65%79%57%54%41%51%60%94%88%90%
Visibility 6 mi6 mi6 mi6 mi6 mi6 mi6 mi6 mi6 mi6 mi6 mi6 mi6 mi6 mi6 mi6 mi6 mi6 mi6 mi6 mi6 mi6 mi6 mi6 mi6 mi6 mi6 mi6 mi6 mi6 mi6 mi6 mi6 mi6 mi6 mi6 mi6 mi6 mi6 mi6 mi6 mi6 mi6 mi6 mi6 mi6 mi6 mi6 mi
Precipitation 0%0%0%0%0%0%0%0%0%0%0%0%0%0%0%0%0%0%0%0%0%0%0%0%0%0%0%0%0%0%0%0%0%0%0%0%0%0%0%0%0%0%0%0%0%0%0%0%
Humidity 70%63%59%58%58%59%55%44%36%33%32%31%32%33%44%48%50%50%50%50%51%52%53%54%53%55%54%54%53%53%51%42%35%32%31%31%32%37%47%50%49%50%51%51%51%52%52%53%
Dew Point 32°F31°F30°F30°F30°F24°F25°F27°F27°F28°F29°F30°F31°F32°F34°F31°F31°F30°F28°F28°F27°F28°F28°F27°F27°F26°F25°F25°F24°F24°F26°F28°F28°F29°F30°F31°F32°F33°F35°F33°F32°F31°F30°F30°F30°F29°F28°F28°F
Pressure 30.27"30.3"30.33"30.33"30.33"30.3"30.33"30.3"30.3"30.27"30.24"30.21"30.18"30.18"30.18"30.21"30.21"30.21"30.24"30.24"30.27"30.27"30.27"30.24"30.24"30.24"30.24"30.27"30.27"30.27"30.27"30.27"30.24"30.24"30.21"30.18"30.15"30.15"30.15"30.18"30.21"30.21"30.24"30.24"30.24"30.27"30.27"30.27"
Wind Speed 5.1 mph4.8 mph4.6 mph4.7 mph4.4 mph4.3 mph3.8 mph1.3 mph1.9 mph3 mph3.8 mph3.6 mph3.2 mph2.8 mph1.3 mph3.1 mph4.4 mph4.6 mph4.6 mph4.8 mph4.9 mph5 mph4.7 mph4.7 mph5 mph4.7 mph4.8 mph4.8 mph5 mph5 mph4.5 mph2.5 mph0.5 mph2 mph2.8 mph2.9 mph3.6 mph1.4 mph0.2 mph1.5 mph4.2 mph4.4 mph4.6 mph4.8 mph4.4 mph4.5 mph4.4 mph4.4 mph
Wind
Direction
52°
NE
46°
NE
49°
NE
49°
NE
51°
NE
49°
NE
44°
NE
32°
NNE
259°
W
255°
WSW
262°
W
262°
W
261°
W
265°
W
288°
WNW
47°
NE
55°
NE
54°
NE
55°
NE
54°
NE
57°
ENE
56°
NE
57°
ENE
58°
ENE
59°
ENE
55°
NE
54°
NE
52°
NE
53°
NE
53°
NE
51°
NE
39°
NE
274°
W
234°
SW
249°
WSW
250°
WSW
253°
WSW
256°
WSW
52°
NE
38°
NE
69°
ENE
59°
ENE
58°
ENE
58°
ENE
53°
NE
58°
ENE
53°
NE
55°
NE

Daily Forecast

Date High Low Precip. Humidity
Today
Nov 28

Clear
62 °F
41 °F
0%
33%
Sunday
Nov 29

Clear
63 °F
46 °F
0%
32%
Monday
Nov 30

Clouds
64 °F
45 °F
0%
34%
Tuesday
Dec 1

Clear
65 °F
46 °F
0%
36%
Wednesday
Dec 2

Clear
67 °F
47 °F
0%
32%
Thursday
Dec 3

Clear
64 °F
44 °F
0%
33%
Friday
Dec 4

Clear
62 °F
43 °F
0%
33%
Saturday
Dec 5

Clear
60 °F
42 °F
0%
34%
Sunday
Dec 6

Clear
59 °F
42 °F
0%
35%
Monday
Dec 7

Clear
56 °F
40 °F
5%
40%
Tuesday
Dec 8

Clouds
67 °F
47 °F
0%
32%
Wednesday
Dec 9

Clear
67 °F
46 °F
0%
30%
Thursday
Dec 10

Clouds
62 °F
45 °F
0%
33%
Friday
Dec 11

Clouds
58 °F
42 °F
0%
41%
Saturday
Dec 12

Clouds
61 °F
44 °F
0%
30%
Sunday
Dec 13

Clear
59 °F
42 °F
0%
32%


Temperature 8-14 Day Outlook



Precipitation 8-14 Day Outlook




Quick Links
Lake Oroville News
Lake Oroville Photos
Lake Oroville Videos




About Us
Contact Us
Site Map
Search Site
Advertise With Us
   
Oroville.LakesOnline.com
THE LAKE OROVILLE WEBSITE

Copyright 2020, Lakes Online
Privacy    |    Legal